Time,TemperatureF,DewpointF,PressureIn,WindDirection,WindDirectionDegrees,WindSpeedMPH,WindSpeedGustMPH,Humidity,HourlyPrecipIn,Conditions,Clouds,dailyrainin,SoftwareType,DateUTC
2013-09-10 00:23:00,75.0,66.0,-100.00,East,90,2.0,-999.0,74,-99.99,,,-99.99,,2013-09-10 05:23:00,
2013-09-10 00:53:00,73.0,66.0,-100.00,North,0,2.0,-999.0,79,-99.99,,,-99.99,,2013-09-10 05:53:00,
2013-09-10 01:22:00,73.0,66.0,-100.00,NNE,23,2.0,-999.0,78,-99.99,,,-99.99,,2013-09-10 06:22:00,
2013-09-10 01:52:00,72.0,66.0,-100.00,NE,45,1.0,-999.0,81,-99.99,,,-99.99,,2013-09-10 06:52:00,
2013-09-10 02:12:00,72.0,66.0,-100.00,SSE,158,1.0,-999.0,82,-99.99,,,-99.99,,2013-09-10 07:12:00,
2013-09-10 02:22:00,72.0,66.0,-100.00,SSE,158,1.0,-999.0,82,-99.99,,,-99.99,,2013-09-10 07:22:00,
2013-09-10 02:42:00,71.0,66.0,-100.00,North,0,1.0,-999.0,85,-99.99,,,-99.99,,2013-09-10 07:42:00,
2013-09-10 02:52:00,71.0,66.0,-100.00,NNE,23,1.0,-999.0,85,-99.99,,,-99.99,,2013-09-10 07:52:00,
2013-09-10 03:12:00,70.0,66.0,-100.00,NE,45,2.0,-999.0,86,-99.99,,,-99.99,,2013-09-10 08:12:00,
2013-09-10 03:22:00,72.0,66.0,-100.00,ENE,68,1.0,-999.0,82,-99.99,,,-99.99,,2013-09-10 08:22:00,
2013-09-10 03:52:00,69.0,66.0,-100.00,NE,45,0.0,-999.0,89,-99.99,,,-99.99,,2013-09-10 08:52:00,
2013-09-10 04:11:00,67.0,65.0,-100.00,NW,315,1.0,-999.0,94,-99.99,,,-99.99,,2013-09-10 09:11:00,
2013-09-10 04:21:00,68.0,65.0,-100.00,North,0,1.0,-999.0,91,-99.99,,,-99.99,,2013-09-10 09:21:00,
2013-09-10 04:54:00,67.0,65.0,-100.00,NNE,23,2.0,-999.0,93,-99.99,,,-99.99,,2013-09-10 09:54:00,
2013-09-10 05:23:00,66.0,65.0,-100.00,North,0,2.0,-999.0,97,-99.99,,,-99.99,,2013-09-10 10:23:00,
2013-09-10 05:53:00,66.0,65.0,-100.00,North,0,2.0,-999.0,96,-99.99,,,-99.99,,2013-09-10 10:53:00,
2013-09-10 06:22:00,66.0,65.0,-100.00,NNE,23,2.0,-999.0,98,-99.99,,,-99.99,,2013-09-10 11:22:00,
2013-09-10 06:52:00,66.0,65.0,-100.00,NNE,23,2.0,-999.0,97,-99.99,,,-99.99,,2013-09-10 11:52:00,
2013-09-10 07:12:00,65.0,65.0,-100.00,NE,45,2.0,-999.0,98,-99.99,,,-99.99,,2013-09-10 12:12:00,
2013-09-10 07:22:00,65.0,65.0,-100.00,NE,45,2.0,-999.0,99,-99.99,,,-99.99,,2013-09-10 12:22:00,
2013-09-10 07:42:00,65.0,65.0,-100.00,NNE,23,1.0,-999.0,99,-99.99,,,-99.99,,2013-09-10 12:42:00,
2013-09-10 07:52:00,65.0,65.0,-100.00,NNE,23,1.0,-999.0,98,-99.99,,,-99.99,,2013-09-10 12:52:00,
2013-09-10 08:11:00,65.0,65.0,-100.00,NNE,23,1.0,-999.0,98,-99.99,,,-99.99,,2013-09-10 13:11:00,
2013-09-10 08:21:00,66.0,66.0,-100.00,ENE,68,1.0,-999.0,98,-99.99,,,-99.99,,2013-09-10 13:21:00,
2013-09-10 08:52:00,68.0,67.0,-100.00,NE,45,2.0,-999.0,95,-99.99,,,-99.99,,2013-09-10 13:52:00,
2013-09-10 09:11:00,69.0,67.0,-100.00,NE,45,1.0,-999.0,92,-99.99,,,-99.99,,2013-09-10 14:11:00,
2013-09-10 09:21:00,70.0,68.0,-100.00,ENE,68,1.0,-999.0,92,-99.99,,,-99.99,,2013-09-10 14:21:00,
2013-09-10 09:32:00,70.0,68.0,-100.00,ENE,68,1.0,-999.0,92,-99.99,,,-99.99,,2013-09-10 14:32:00,
2013-09-10 09:42:00,70.0,68.0,-100.00,ENE,68,1.0,-999.0,92,-99.99,,,-99.99,,2013-09-10 14:42:00,
2013-09-10 09:52:00,70.0,68.0,-100.00,ENE,68,1.0,-999.0,92,-99.99,,,-99.99,,2013-09-10 14:52:00,
2013-09-10 10:02:00,70.0,68.0,-100.00,ENE,68,1.0,-999.0,92,-99.99,,,-99.99,,2013-09-10 15:02:00,
2013-09-10 10:23:00,73.0,67.0,-100.00,East,90,2.0,-999.0,82,-99.99,,,-99.99,,2013-09-10 15:23:00,
2013-09-10 10:54:00,74.0,68.0,-100.00,ENE,68,2.0,-999.0,81,-99.99,,,-99.99,,2013-09-10 15:54:00,
2013-09-10 11:23:00,76.0,69.0,-100.00,ENE,68,2.0,-999.0,78,-99.99,,,-99.99,,2013-09-10 16:23:00,
2013-09-10 11:53:00,77.0,69.0,-100.00,ENE,68,2.0,-999.0,75,-99.99,,,-99.99,,2013-09-10 16:53:00,
2013-09-10 12:23:00,78.0,67.0,-100.00,ENE,68,2.0,-999.0,69,-99.99,,,-99.99,,2013-09-10 17:23:00,
2013-09-10 12:52:00,80.0,68.0,-100.00,NE,45,1.0,-999.0,66,-99.99,,,-99.99,,2013-09-10 17:52:00,
2013-09-10 13:21:00,81.0,65.0,-100.00,ENE,68,2.0,-999.0,58,-99.99,,,-99.99,,2013-09-10 18:21:00,
2013-09-10 13:43:00,80.0,65.0,-100.00,ENE,68,1.0,-999.0,59,-99.99,,,-99.99,,2013-09-10 18:43:00,
2013-09-10 13:52:00,81.0,65.0,-100.00,NE,45,3.0,-999.0,57,-99.99,,,-99.99,,2013-09-10 18:52:00,
2013-09-10 14:22:00,82.0,64.0,-100.00,ESE,113,2.0,-999.0,55,-99.99,,,-99.99,,2013-09-10 19:22:00,
2013-09-10 14:52:00,82.0,67.0,-100.00,NE,45,3.0,-999.0,61,-99.99,,,-99.99,,2013-09-10 19:52:00,
2013-09-10 15:21:00,81.0,66.0,-100.00,NNE,23,3.0,-999.0,59,-99.99,,,-99.99,,2013-09-10 20:21:00,
2013-09-10 15:52:00,81.0,65.0,-100.00,NNE,23,2.0,-999.0,57,-99.99,,,-99.99,,2013-09-10 20:52:00,
2013-09-10 16:23:00,81.0,64.0,-100.00,NE,45,3.0,-999.0,56,-99.99,,,-99.99,,2013-09-10 21:23:00,
2013-09-10 16:54:00,81.0,64.0,-100.00,NE,45,2.0,-999.0,57,-99.99,,,-99.99,,2013-09-10 21:54:00,
2013-09-10 17:24:00,80.0,65.0,-100.00,NNE,23,3.0,-999.0,59,-99.99,,,-99.99,,2013-09-10 22:24:00,
2013-09-10 17:54:00,80.0,60.0,-100.00,NE,45,3.0,-999.0,50,-99.99,,,-99.99,,2013-09-10 22:54:00,
2013-09-10 18:22:00,79.0,61.0,-100.00,NE,45,3.0,-999.0,53,-99.99,,,-99.99,,2013-09-10 23:22:00,
2013-09-10 18:53:00,78.0,62.0,-100.00,NE,45,3.0,-999.0,59,-99.99,,,-99.99,,2013-09-10 23:53:00,
2013-09-10 19:22:00,75.0,64.0,-100.00,ENE,68,2.0,-999.0,68,-99.99,,,-99.99,,2013-09-11 00:22:00,
2013-09-10 19:52:00,73.0,64.0,-100.00,NNE,23,2.0,-999.0,71,-99.99,,,-99.99,,2013-09-11 00:52:00,
2013-09-10 20:21:00,72.0,63.0,-100.00,NE,45,2.0,-999.0,74,-99.99,,,-99.99,,2013-09-11 01:21:00,
2013-09-10 20:53:00,71.0,63.0,-100.00,NE,45,2.0,-999.0,76,-99.99,,,-99.99,,2013-09-11 01:53:00,
2013-09-10 21:22:00,71.0,63.0,-100.00,NE,45,2.0,-999.0,76,-99.99,,,-99.99,,2013-09-11 02:22:00,
2013-09-10 21:52:00,71.0,63.0,-100.00,NNE,23,1.0,-999.0,74,-99.99,,,-99.99,,2013-09-11 02:52:00,
2013-09-10 22:22:00,71.0,63.0,-100.00,SE,135,0.0,-999.0,74,-99.99,,,-99.99,,2013-09-11 03:22:00,
2013-09-10 22:55:00,71.0,62.0,-100.00,ENE,68,0.0,-999.0,73,-99.99,,,-99.99,,2013-09-11 03:55:00,
2013-09-10 23:24:00,70.0,62.0,-100.00,North,0,0.0,-999.0,76,-99.99,,,-99.99,,2013-09-11 04:24:00,
2013-09-10 23:54:00,69.0,63.0,-100.00,WNW,293,0.0,-999.0,82,-99.99,,,-99.99,,2013-09-11 04:54:00,